JCSAT-2B

Last updated on Jan. 21, 2021, 6:16 a.m. UTC

1 41471U 16028A   21020.69113346 -.00000158  00000-0  00000-0 0  9997
2 41471   0.0198  64.7938 0002041 237.6172 220.6488  1.00270440 17320
UTC
Height (km)
Latitude
Longitude
Inclination
Orbital Period
UTC large
Height (km)
Speed (km/s)
/
Latitude / Longitude
Inclination (degrees)
Orbital Period (minutes)
Azimuth
Elevation
Range (km)
Doppler Factor
iOS Compass Heading
iOS Angle

Next 30 passes for location: Hong Kong

Rise time Rise Azimuth (degrees) Set time Set Azimuth (degrees) Duration Max altitude (degrees)

No matching passes for this satellites